Location: Wanzleben
(52.0609°N, 11.4408°E)
Time: 10:52:50
(UTC+00:00)

USA 234 - Pass Details

Date: 18 September 2020
Orbit: 1102 x 1106 km, 123.0° (Epoch: 16 October)

Event Time Altitude Azimuth Distance (km) Brightness Sun altitude
Rises 23:41:25 0° 88° (E) 3,920 6.3 -36.1°
Reaches altitude 10° 23:43:55 10° 85° (E) 2,963 5.6 -36.0°
Maximum altitude 23:50:20 61° 8° (N) 1,244 3.6 -35.8°
Enters shadow 23:50:38 60° 355° (N) 1,250 3.6 -35.8°
Exits shadow 23:54:28 23° 296° (WNW) 2,139 4.8 -35.7°
Drops below altitude 10° 23:56:45 10° 290° (WNW) 2,967 5.5 -35.6°
Sets 23:59:15 0° 287° (WNW) 3,926 6.2 -35.5°
